Location: Eurasberg
(48.3353°N, 11.0839°E)
Time: 10:46:31
(UTC+00:00)

COSMO-SKYMED 1 - Pass Details

Date: 18 January 2026
Orbit: 578 x 579 km, 97.9° (Epoch: 11 February)

Event Time Altitude Azimuth Distance (km) Brightness Sun altitude
Rises 05:57:49 0° 211° (SSW) 2,787 5.8 -10.1°
Reaches altitude 10° 06:00:49 10° 235° (SW) 1,894 4.7 -9.7°
Maximum altitude 06:03:09 15° 270° (W) 1,613 4.1 -9.3°
Enters shadow 06:04:58 12° 299° (WNW) 1,794 4.3 -9.0°
